Tracking 17154 objects as of 1-August-2015
HD Live streaming from Space Station

METEOSAT 5 AKM

Track METEOSAT 5 AKM now!
METEOSAT 5 AKM is classified as:


NORAD ID: 21904
Int'l Code: 1991-015E
Perigee: 35,144.1 km
Apogee: 36,518.9 km
Inclination: 14.3 °
Period: 1,438.0 minutes
Semi major axis: 42202 km
RCS: 0.9471 m2 (medium)
Launch date: March 2, 1991
Source: European Space Agency (ESA)

Note: This is a ROCKET BODY
Your satellite tracking list
Your tracking list is empty





NASA's NSSDC Master Catalog

Two Line Element Set (TLE):
1 21904U 91015E   15212.38441170 -.00000351  00000-0  00000+0 0  9990
2 21904 014.3051 012.4386 0162888 128.7081 246.4041 01.00137284 76691

Source of the keplerian elements: AFSPC

N2YO: 308